Time,TemperatureF,DewpointF,PressureIn,WindDirection,WindDirectionDegrees,WindSpeedMPH,WindSpeedGustMPH,Humidity,HourlyPrecipIn,Conditions,Clouds,dailyrainin,SoftwareType,DateUTC
2013-08-01 00:01:00,85.1,87.6,30.07,SSE,157,3.6,8.3,64,0.00,,,0.00,,2013-08-01 04:01:00,
2013-08-01 00:02:00,85.1,87.5,30.07,SE,135,10.1,10.1,64,0.00,,,0.00,,2013-08-01 04:02:00,
2013-08-01 00:03:00,85.1,87.6,30.07,SSE,157,6.7,10.7,64,0.00,,,0.00,,2013-08-01 04:03:00,
2013-08-01 00:08:00,85.0,87.5,30.07,SE,135,7.8,8.9,64,0.00,,,0.00,,2013-08-01 04:08:00,
2013-08-01 00:13:00,85.0,87.5,30.07,SE,135,11.0,12.3,64,0.00,,,0.00,,2013-08-01 04:13:00,
2013-08-01 00:18:00,84.9,87.5,30.07,SSE,157,8.1,8.9,64,0.00,,,0.00,,2013-08-01 04:18:00,
2013-08-01 00:23:00,84.9,87.4,30.06,ESE,112,6.5,8.9,65,0.00,,,0.00,,2013-08-01 04:23:00,
2013-08-01 00:28:00,84.8,87.5,30.06,ESE,112,7.4,9.4,65,0.00,,,0.00,,2013-08-01 04:28:00,
2013-08-01 00:33:00,84.8,87.4,30.06,SE,135,4.0,5.6,65,0.00,,,0.00,,2013-08-01 04:33:00,
2013-08-01 00:38:00,84.8,87.5,30.06,SE,135,8.3,11.9,64,0.00,,,0.00,,2013-08-01 04:38:00,
2013-08-01 00:43:00,84.8,87.4,30.06,SE,135,7.2,7.8,65,0.00,,,0.00,,2013-08-01 04:43:00,
2013-08-01 00:48:00,84.8,87.4,30.05,SE,135,11.6,11.6,65,0.00,,,0.00,,2013-08-01 04:48:00,
2013-08-01 00:53:00,84.8,87.4,30.05,SE,135,4.5,5.6,65,0.00,,,0.00,,2013-08-01 04:53:00,
2013-08-01 00:58:00,84.7,87.4,30.05,South,180,3.1,3.4,65,0.00,,,0.00,,2013-08-01 04:58:00,
2013-08-01 01:03:00,84.7,87.3,30.05,SSE,157,3.6,6.9,65,0.00,,,0.00,,2013-08-01 05:03:00,
2013-08-01 01:08:00,84.7,87.3,30.05,SSE,157,2.9,2.9,65,0.00,,,0.00,,2013-08-01 05:08:00,
2013-08-01 01:13:00,84.7,87.3,30.05,SSE,157,1.3,4.9,65,0.00,,,0.00,,2013-08-01 05:13:00,
2013-08-01 01:18:00,84.7,87.3,30.05,SSE,157,1.1,1.1,65,0.00,,,0.00,,2013-08-01 05:18:00,
2013-08-01 01:23:00,84.7,87.3,30.05,SSE,157,0.9,4.5,65,0.00,,,0.00,,2013-08-01 05:23:00,
2013-08-01 01:28:00,84.6,87.2,30.05,SE,135,3.4,3.4,65,0.00,,,0.00,,2013-08-01 05:28:00,
2013-08-01 01:33:00,84.6,87.2,30.05,SSE,157,0.9,3.6,65,0.00,,,0.00,,2013-08-01 05:33:00,
2013-08-01 01:38:00,84.6,87.2,30.04,SSE,157,1.6,2.9,65,0.00,,,0.00,,2013-08-01 05:38:00,
2013-08-01 01:43:00,84.6,87.2,30.04,SSE,157,2.0,3.6,65,0.00,,,0.00,,2013-08-01 05:43:00,
2013-08-01 01:48:00,84.6,87.2,30.04,SSE,157,3.1,4.9,65,0.00,,,0.00,,2013-08-01 05:48:00,
2013-08-01 01:54:00,84.5,87.1,30.04,SSE,157,2.2,2.9,65,0.00,,,0.00,,2013-08-01 05:54:00,
2013-08-01 01:59:00,84.5,87.2,30.04,SSE,157,2.9,3.4,65,0.00,,,0.00,,2013-08-01 05:59:00,
2013-08-01 02:04:00,84.5,87.2,30.04,SE,135,0.7,1.8,65,0.00,,,0.00,,2013-08-01 06:04:00,
2013-08-01 02:09:00,84.4,87.1,30.03,SE,135,0.0,0.0,65,0.00,,,0.00,,2013-08-01 06:09:00,
2013-08-01 02:14:00,84.4,87.1,30.03,SE,135,1.1,1.1,66,0.00,,,0.00,,2013-08-01 06:14:00,
2013-08-01 02:19:00,84.4,87.1,30.03,SSE,157,1.1,1.1,66,0.00,,,0.00,,2013-08-01 06:19:00,
2013-08-01 02:24:00,84.4,87.1,30.03,SSE,157,0.0,0.4,66,0.00,,,0.00,,2013-08-01 06:24:00,
2013-08-01 02:29:00,84.4,87.1,30.02,SE,135,0.0,0.7,66,0.00,,,0.00,,2013-08-01 06:29:00,
2013-08-01 02:34:00,84.3,87.1,30.02,SE,135,0.0,0.4,66,0.00,,,0.00,,2013-08-01 06:34:00,
2013-08-01 02:39:00,84.3,87.1,30.02,SE,135,0.0,0.4,66,0.00,,,0.00,,2013-08-01 06:39:00,
2013-08-01 02:44:00,84.2,87.1,30.02,SE,135,0.0,0.0,66,0.00,,,0.00,,2013-08-01 06:44:00,
2013-08-01 02:49:00,84.2,87.0,30.01,SE,135,0.0,0.0,66,0.00,,,0.00,,2013-08-01 06:49:00,
2013-08-01 02:54:00,84.3,87.1,30.01,SE,135,0.0,0.0,66,0.00,,,0.00,,2013-08-01 06:54:00,
2013-08-01 02:59:00,84.2,87.1,30.01,SE,135,0.0,0.0,66,0.00,,,0.00,,2013-08-01 06:59:00,
2013-08-01 03:04:00,84.2,87.0,30.01,SE,135,0.0,0.0,66,0.00,,,0.00,,2013-08-01 07:04:00,
2013-08-01 03:09:00,84.2,87.1,30.01,SE,135,0.0,0.0,66,0.00,,,0.00,,2013-08-01 07:09:00,
2013-08-01 03:14:00,84.1,87.0,30.00,SE,135,0.0,0.0,66,0.00,,,0.00,,2013-08-01 07:14:00,
2013-08-01 03:19:00,84.2,87.0,30.00,SE,135,0.0,0.0,66,0.00,,,0.00,,2013-08-01 07:19:00,
2013-08-01 03:24:00,84.2,87.0,30.00,SE,135,0.0,0.0,66,0.00,,,0.00,,2013-08-01 07:24:00,
2013-08-01 03:29:00,84.3,87.0,30.00,SE,135,0.0,0.0,66,0.00,,,0.00,,2013-08-01 07:29:00,
2013-08-01 03:30:00,84.2,87.0,30.00,SE,135,0.0,0.0,66,0.00,,,0.00,,2013-08-01 07:30:00,
2013-08-01 03:35:00,84.2,87.0,30.00,SE,135,0.0,0.0,66,0.00,,,0.00,,2013-08-01 07:35:00,
2013-08-01 03:40:00,84.2,87.0,30.00,SE,135,0.0,0.0,66,0.00,,,0.00,,2013-08-01 07:40:00,
2013-08-01 03:45:00,84.2,86.9,29.99,SE,135,0.0,0.0,66,0.00,,,0.00,,2013-08-01 07:45:00,
2013-08-01 03:51:00,84.1,86.9,29.99,SE,135,0.0,0.0,67,0.00,,,0.00,,2013-08-01 07:51:00,
2013-08-01 03:56:00,84.1,86.9,29.99,North,0,0.0,0.0,67,0.00,,,0.00,,2013-08-01 07:56:00,
2013-08-01 04:01:00,83.8,86.9,29.99,North,0,0.0,0.0,67,0.00,,,0.00,,2013-08-01 08:01:00,
2013-08-01 04:06:00,83.7,86.9,29.99,North,0,0.0,0.0,67,0.00,,,0.00,,2013-08-01 08:06:00,
2013-08-01 04:11:00,83.6,86.9,29.99,NNE,22,0.0,0.0,68,0.00,,,0.00,,2013-08-01 08:11:00,
2013-08-01 04:16:00,83.6,86.9,29.99,NE,45,0.2,0.7,69,0.00,,,0.00,,2013-08-01 08:16:00,
2013-08-01 04:21:00,83.4,86.8,29.99,NE,45,0.0,0.0,69,0.00,,,0.00,,2013-08-01 08:21:00,
2013-08-01 04:27:00,83.3,86.8,29.99,NE,45,0.0,0.0,69,0.00,,,0.00,,2013-08-01 08:27:00,
2013-08-01 04:32:00,83.2,86.8,29.98,NE,45,0.0,0.0,69,0.00,,,0.00,,2013-08-01 08:32:00,
2013-08-01 04:37:00,83.2,86.8,29.98,NE,45,0.0,0.0,69,0.00,,,0.00,,2013-08-01 08:37:00,
2013-08-01 04:42:00,83.1,86.8,29.98,NE,45,0.0,0.0,69,0.00,,,0.00,,2013-08-01 08:42:00,
2013-08-01 04:47:00,83.0,86.8,29.98,NE,45,0.0,0.0,69,0.00,,,0.00,,2013-08-01 08:47:00,
2013-08-01 04:53:00,83.0,86.8,29.98,NE,45,0.0,0.0,69,0.00,,,0.00,,2013-08-01 08:53:00,
2013-08-01 04:58:00,83.0,86.8,29.98,NE,45,0.0,0.0,70,0.00,,,0.00,,2013-08-01 08:58:00,
2013-08-01 05:03:00,83.0,86.8,29.98,NE,45,0.0,0.0,70,0.00,,,0.00,,2013-08-01 09:03:00,
2013-08-01 05:08:00,83.1,86.8,29.98,NE,45,0.0,0.0,70,0.00,,,0.00,,2013-08-01 09:08:00,
2013-08-01 05:13:00,83.1,86.8,29.98,NE,45,0.0,0.0,70,0.00,,,0.00,,2013-08-01 09:13:00,
2013-08-01 05:19:00,83.0,86.8,29.98,NE,45,0.0,0.0,70,0.00,,,0.00,,2013-08-01 09:19:00,
2013-08-01 05:24:00,82.8,86.8,29.98,NE,45,0.0,0.0,71,0.00,,,0.00,,2013-08-01 09:24:00,
2013-08-01 05:28:00,82.7,86.7,29.98,NE,45,0.0,0.0,71,0.00,,,0.00,,2013-08-01 09:28:00,
2013-08-01 05:34:00,82.7,86.7,29.98,NE,45,0.0,0.0,71,0.00,,,0.00,,2013-08-01 09:34:00,
2013-08-01 05:39:00,82.6,86.7,29.98,NE,45,0.0,0.0,71,0.00,,,0.00,,2013-08-01 09:39:00,
2013-08-01 05:45:00,82.6,86.7,29.98,NE,45,0.0,0.0,71,0.00,,,0.00,,2013-08-01 09:45:00,
2013-08-01 05:50:00,82.7,86.7,29.98,NE,45,0.0,0.0,71,0.00,,,0.00,,2013-08-01 09:50:00,
2013-08-01 05:56:00,82.7,86.6,29.98,ESE,112,0.7,1.1,71,0.00,,,0.00,,2013-08-01 09:56:00,
2013-08-01 06:01:00,82.4,86.7,29.98,ESE,112,0.0,1.3,71,0.00,,,0.00,,2013-08-01 10:01:00,
2013-08-01 06:06:00,82.2,86.6,29.98,ESE,112,0.0,0.9,71,0.00,,,0.00,,2013-08-01 10:06:00,
2013-08-01 06:11:00,82.0,86.6,29.98,SE,135,2.2,3.1,72,0.00,,,0.00,,2013-08-01 10:11:00,
2013-08-01 06:17:00,81.9,86.6,29.98,SE,135,0.4,2.7,72,0.00,,,0.00,,2013-08-01 10:17:00,
2013-08-01 06:22:00,81.9,86.5,29.98,SE,135,1.8,2.5,72,0.00,,,0.00,,2013-08-01 10:22:00,
2013-08-01 06:27:00,82.0,86.6,29.98,ESE,112,0.7,3.8,72,0.00,,,0.00,,2013-08-01 10:27:00,
2013-08-01 06:32:00,82.0,86.5,29.99,East,90,0.4,3.6,72,0.00,,,0.00,,2013-08-01 10:32:00,
2013-08-01 06:37:00,82.1,86.5,29.99,East,90,0.0,0.9,72,0.00,,,0.00,,2013-08-01 10:37:00,
2013-08-01 06:43:00,82.2,86.5,29.99,ESE,112,0.7,2.5,72,0.00,,,0.00,,2013-08-01 10:43:00,
2013-08-01 06:48:00,82.4,86.6,29.99,ESE,112,0.0,0.0,71,0.00,,,0.00,,2013-08-01 10:48:00,
2013-08-01 06:54:00,82.5,86.6,30.00,ESE,112,0.0,0.0,71,0.00,,,0.00,,2013-08-01 10:54:00,
2013-08-01 06:59:00,82.7,86.5,30.00,East,90,0.7,1.6,71,0.00,,,0.00,,2013-08-01 10:59:00,
2013-08-01 07:04:00,82.9,86.5,30.00,East,90,0.0,0.9,71,0.00,,,0.00,,2013-08-01 11:04:00,
2013-08-01 07:10:00,82.8,86.5,30.00,ESE,112,0.0,0.0,71,0.00,,,0.00,,2013-08-01 11:10:00,
2013-08-01 07:15:00,83.0,86.5,30.00,ESE,112,0.0,0.0,71,0.00,,,0.00,,2013-08-01 11:15:00,
2013-08-01 07:21:00,83.7,86.5,30.01,ESE,112,0.0,0.0,71,0.00,,,0.00,,2013-08-01 11:21:00,
2013-08-01 07:26:00,84.9,86.5,30.01,NNE,22,0.0,1.3,71,0.00,,,0.00,,2013-08-01 11:26:00,
2013-08-01 07:31:00,85.7,86.6,30.01,NNE,22,0.7,2.0,69,0.00,,,0.00,,2013-08-01 11:31:00,
2013-08-01 07:36:00,86.6,86.6,30.01,NNE,22,0.0,0.7,69,0.00,,,0.00,,2013-08-01 11:36:00,
2013-08-01 07:41:00,87.8,86.6,30.01,NNE,22,0.0,0.4,68,0.00,,,0.00,,2013-08-01 11:41:00,
2013-08-01 07:46:00,88.8,86.6,30.01,NNE,22,0.0,0.0,66,0.00,,,0.00,,2013-08-01 11:46:00,
2013-08-01 07:51:00,89.6,86.6,30.01,NNE,22,0.0,0.0,66,0.00,,,0.00,,2013-08-01 11:51:00,
2013-08-01 07:57:00,90.1,86.7,30.01,ESE,112,1.6,1.8,64,0.00,,,0.00,,2013-08-01 11:57:00,
2013-08-01 08:02:00,89.6,86.7,30.01,ESE,112,4.9,8.7,58,0.00,,,0.00,,2013-08-01 12:02:00,
2013-08-01 08:08:00,88.5,86.7,30.02,ESE,112,10.3,11.2,58,0.00,,,0.00,,2013-08-01 12:08:00,
2013-08-01 08:14:00,88.0,86.7,30.02,ESE,112,4.7,4.9,59,0.00,,,0.00,,2013-08-01 12:14:00,
2013-08-01 08:19:00,87.8,86.8,30.02,SE,135,3.1,5.6,59,0.00,,,0.00,,2013-08-01 12:19:00,
2013-08-01 08:24:00,87.7,86.8,30.02,ESE,112,10.1,13.2,59,0.00,,,0.00,,2013-08-01 12:24:00,
2013-08-01 08:29:00,87.4,86.7,30.02,East,90,4.9,9.4,60,0.00,,,0.00,,2013-08-01 12:29:00,
2013-08-01 08:34:00,87.5,86.8,30.02,SE,135,4.5,7.2,60,0.00,,,0.00,,2013-08-01 12:34:00,
2013-08-01 08:39:00,87.2,86.8,30.03,ESE,112,7.8,9.4,60,0.00,,,0.00,,2013-08-01 12:39:00,
2013-08-01 08:45:00,87.0,86.9,30.03,SE,135,5.1,11.0,60,0.00,,,0.00,,2013-08-01 12:45:00,
2013-08-01 08:50:00,87.1,86.9,30.03,SE,135,6.9,9.2,60,0.00,,,0.00,,2013-08-01 12:50:00,
2013-08-01 08:55:00,87.3,86.9,30.03,ESE,112,9.8,12.5,60,0.00,,,0.00,,2013-08-01 12:55:00,
2013-08-01 09:00:00,87.1,86.9,30.03,SE,135,10.5,12.1,59,0.00,,,0.00,,2013-08-01 13:00:00,
2013-08-01 09:06:00,87.1,86.9,30.03,SE,135,8.1,10.1,60,0.00,,,0.00,,2013-08-01 13:06:00,
2013-08-01 09:11:00,87.3,86.9,30.01,East,90,6.0,7.4,60,0.00,,,0.00,,2013-08-01 13:11:00,
2013-08-01 09:16:00,87.5,87.0,30.01,SSE,157,5.8,11.0,58,0.00,,,0.00,,2013-08-01 13:16:00,
2013-08-01 09:22:00,87.6,87.1,30.01,ESE,112,8.7,9.8,58,0.00,,,0.00,,2013-08-01 13:22:00,
2013-08-01 09:27:00,87.8,87.1,30.01,ESE,112,6.9,8.9,59,0.00,,,0.00,,2013-08-01 13:27:00,
2013-08-01 09:32:00,87.9,87.0,30.01,SE,135,3.8,4.5,59,0.00,,,0.00,,2013-08-01 13:32:00,
2013-08-01 09:37:00,87.7,87.0,30.01,SE,135,5.8,10.3,58,0.00,,,0.00,,2013-08-01 13:37:00,
2013-08-01 09:42:00,87.5,87.1,30.01,SE,135,7.8,13.4,58,0.00,,,0.00,,2013-08-01 13:42:00,
2013-08-01 09:47:00,87.4,87.0,30.01,South,180,2.0,10.5,59,0.00,,,0.00,,2013-08-01 13:47:00,
2013-08-01 09:53:00,87.6,87.0,30.01,East,90,6.9,8.1,59,0.00,,,0.00,,2013-08-01 13:53:00,
2013-08-01 09:58:00,87.7,87.1,30.01,SE,135,6.5,6.9,59,0.00,,,0.00,,2013-08-01 13:58:00,
2013-08-01 10:03:00,88.1,87.3,30.00,East,90,4.9,9.4,58,0.00,,,0.00,,2013-08-01 14:03:00,
2013-08-01 10:08:00,88.2,87.1,30.01,SE,135,7.8,9.6,56,0.00,,,0.00,,2013-08-01 14:08:00,
2013-08-01 10:13:00,88.2,87.2,30.01,East,90,4.9,8.7,58,0.00,,,0.00,,2013-08-01 14:13:00,
2013-08-01 10:18:00,88.1,87.1,30.01,SE,135,10.5,13.4,58,0.00,,,0.00,,2013-08-01 14:18:00,
2013-08-01 10:23:00,88.0,87.2,30.01,ESE,112,6.9,9.6,59,0.00,,,0.00,,2013-08-01 14:23:00,
2013-08-01 10:28:00,88.1,87.1,30.01,SE,135,5.1,8.7,58,0.00,,,0.00,,2013-08-01 14:28:00,
2013-08-01 10:34:00,88.2,87.1,30.01,SE,135,10.3,10.3,57,0.00,,,0.00,,2013-08-01 14:34:00,
2013-08-01 10:39:00,88.4,87.3,30.01,ESE,112,9.6,12.3,57,0.00,,,0.00,,2013-08-01 14:39:00,
2013-08-01 10:44:00,88.6,87.4,30.01,East,90,4.7,11.6,57,0.00,,,0.00,,2013-08-01 14:44:00,
2013-08-01 10:49:00,88.6,87.3,30.01,East,90,6.7,8.3,57,0.00,,,0.00,,2013-08-01 14:49:00,
2013-08-01 10:54:00,88.7,87.4,30.01,ESE,112,5.8,7.6,56,0.00,,,0.00,,2013-08-01 14:54:00,
2013-08-01 10:59:00,88.7,87.4,30.01,SE,135,3.6,6.0,55,0.00,,,0.00,,2013-08-01 14:59:00,
2013-08-01 11:04:00,88.9,87.5,30.01,ESE,112,8.3,8.3,52,0.00,,,0.00,,2013-08-01 15:04:00,
2013-08-01 11:09:00,88.6,87.4,30.01,East,90,3.8,7.6,55,0.00,,,0.00,,2013-08-01 15:09:00,
2013-08-01 11:15:00,88.6,87.6,30.01,SSE,157,10.7,11.6,53,0.00,,,0.00,,2013-08-01 15:15:00,
2013-08-01 11:21:00,88.7,87.6,30.01,ESE,112,4.5,8.9,53,0.00,,,0.00,,2013-08-01 15:21:00,
2013-08-01 11:26:00,88.7,87.5,30.02,SE,135,13.0,16.8,52,0.00,,,0.00,,2013-08-01 15:26:00,
2013-08-01 11:31:00,88.6,87.6,30.02,SE,135,11.9,15.9,55,0.00,,,0.00,,2013-08-01 15:31:00,
2013-08-01 11:36:00,88.7,87.7,30.01,East,90,6.3,12.1,55,0.00,,,0.00,,2013-08-01 15:36:00,
2013-08-01 11:41:00,89.0,87.7,30.02,SE,135,5.4,11.2,56,0.00,,,0.00,,2013-08-01 15:41:00,
2013-08-01 11:47:00,89.1,87.5,30.01,ENE,67,3.6,7.2,55,0.00,,,0.00,,2013-08-01 15:47:00,
2013-08-01 11:53:00,89.3,87.6,30.01,ESE,112,0.7,2.7,54,0.00,,,0.00,,2013-08-01 15:53:00,
2013-08-01 11:58:00,89.4,87.7,30.01,ESE,112,13.4,13.4,52,0.00,,,0.00,,2013-08-01 15:58:00,
2013-08-01 12:03:00,89.2,87.7,30.01,SE,135,11.6,12.1,51,0.00,,,0.00,,2013-08-01 16:03:00,
2013-08-01 12:09:00,89.3,87.8,30.01,ESE,112,11.2,15.2,53,0.00,,,0.00,,2013-08-01 16:09:00,
2013-08-01 12:14:00,89.1,87.8,30.01,SSE,157,6.9,11.4,53,0.00,,,0.00,,2013-08-01 16:14:00,
2013-08-01 12:19:00,89.1,87.7,30.01,ESE,112,9.8,11.4,52,0.00,,,0.00,,2013-08-01 16:19:00,
2013-08-01 12:25:00,89.4,87.9,30.01,ESE,112,9.4,13.4,51,0.00,,,0.00,,2013-08-01 16:25:00,
2013-08-01 12:30:00,89.2,87.9,30.01,SE,135,7.2,10.5,52,0.00,,,0.00,,2013-08-01 16:30:00,
2013-08-01 12:36:00,89.3,88.0,30.01,East,90,11.6,14.3,52,0.00,,,0.00,,2013-08-01 16:36:00,
2013-08-01 12:41:00,89.7,88.0,30.01,SE,135,5.6,9.6,52,0.00,,,0.00,,2013-08-01 16:41:00,
2013-08-01 12:47:00,89.7,87.9,30.01,ESE,112,13.9,15.7,51,0.00,,,0.00,,2013-08-01 16:47:00,
2013-08-01 12:52:00,89.7,88.0,30.00,SE,135,7.6,12.5,52,0.00,,,0.00,,2013-08-01 16:52:00,
2013-08-01 12:57:00,89.5,87.9,30.00,ESE,112,7.6,11.6,53,0.00,,,0.00,,2013-08-01 16:57:00,
2013-08-01 13:03:00,89.4,87.9,30.00,SE,135,4.5,9.8,53,0.00,,,0.00,,2013-08-01 17:03:00,
2013-08-01 13:08:00,89.2,88.2,30.00,ESE,112,4.3,11.9,55,0.00,,,0.00,,2013-08-01 17:08:00,
2013-08-01 13:13:00,89.4,88.3,30.00,ESE,112,11.0,17.9,53,0.00,,,0.00,,2013-08-01 17:13:00,
2013-08-01 13:18:00,89.4,88.1,30.00,ESE,112,14.8,15.0,55,0.00,,,0.00,,2013-08-01 17:18:00,
2013-08-01 13:24:00,89.3,88.1,30.00,ESE,112,10.1,16.3,54,0.00,,,0.00,,2013-08-01 17:24:00,
2013-08-01 13:29:00,89.3,88.3,30.00,East,90,9.8,18.3,55,0.00,,,0.00,,2013-08-01 17:29:00,
2013-08-01 13:34:00,89.4,88.2,30.00,ESE,112,9.6,12.8,55,0.00,,,0.00,,2013-08-01 17:34:00,
2013-08-01 13:39:00,89.5,88.1,30.00,ESE,112,12.8,13.2,54,0.00,,,0.00,,2013-08-01 17:39:00,
2013-08-01 13:45:00,89.3,88.2,30.00,SE,135,2.7,14.3,56,0.00,,,0.00,,2013-08-01 17:45:00,
2013-08-01 13:50:00,89.4,88.5,29.99,East,90,7.6,13.9,54,0.00,,,0.00,,2013-08-01 17:50:00,
2013-08-01 13:55:00,89.3,88.5,29.99,ESE,112,8.1,18.8,54,0.00,,,0.00,,2013-08-01 17:55:00,
2013-08-01 14:00:00,89.4,88.5,29.99,East,90,13.6,13.6,52,0.00,,,0.00,,2013-08-01 18:00:00,
2013-08-01 14:06:00,89.6,88.4,29.99,East,90,10.5,14.3,54,0.00,,,0.00,,2013-08-01 18:06:00,
2013-08-01 14:12:00,89.7,88.8,29.99,East,90,11.4,11.4,53,0.00,,,0.00,,2013-08-01 18:12:00,
2013-08-01 14:17:00,89.6,88.6,29.99,ESE,112,11.6,16.8,52,0.00,,,0.00,,2013-08-01 18:17:00,
2013-08-01 14:22:00,89.5,88.5,29.99,East,90,14.8,15.9,54,0.00,,,0.00,,2013-08-01 18:22:00,
2013-08-01 14:27:00,89.5,88.8,29.98,ESE,112,13.6,14.8,53,0.00,,,0.00,,2013-08-01 18:27:00,
2013-08-01 14:32:00,89.5,88.9,29.98,SE,135,9.6,15.0,54,0.00,,,0.00,,2013-08-01 18:32:00,
2013-08-01 14:38:00,89.4,88.9,29.98,East,90,7.6,14.8,55,0.00,,,0.00,,2013-08-01 18:38:00,
2013-08-01 14:43:00,89.5,89.0,29.98,East,90,11.4,17.2,55,0.00,,,0.00,,2013-08-01 18:43:00,
2013-08-01 14:48:00,89.4,89.0,29.98,ENE,67,6.7,6.7,56,0.00,,,0.00,,2013-08-01 18:48:00,
2013-08-01 14:53:00,89.7,89.1,29.98,East,90,10.5,14.5,57,0.00,,,0.00,,2013-08-01 18:53:00,
2013-08-01 14:59:00,89.4,89.0,29.98,East,90,7.6,11.9,55,0.00,,,0.00,,2013-08-01 18:59:00,
2013-08-01 15:04:00,89.3,88.9,29.98,ENE,67,7.8,8.9,57,0.00,,,0.00,,2013-08-01 19:04:00,
2013-08-01 15:10:00,88.9,88.7,29.98,NE,45,6.9,16.1,56,0.00,,,0.00,,2013-08-01 19:10:00,
2013-08-01 15:15:00,88.5,88.7,29.98,East,90,4.3,13.2,56,0.00,,,0.00,,2013-08-01 19:15:00,
2013-08-01 15:20:00,88.6,88.7,29.98,East,90,7.6,13.4,55,0.00,,,0.00,,2013-08-01 19:20:00,
2013-08-01 15:25:00,89.0,88.7,29.97,SE,135,6.0,8.3,55,0.00,,,0.00,,2013-08-01 19:25:00,
2013-08-01 15:31:00,89.5,88.8,29.97,ESE,112,6.7,10.5,55,0.00,,,0.00,,2013-08-01 19:31:00,
2013-08-01 15:36:00,89.7,88.9,29.97,ESE,112,10.1,15.7,54,0.00,,,0.00,,2013-08-01 19:36:00,
2013-08-01 15:41:00,89.3,88.7,29.97,ESE,112,12.5,18.8,53,0.00,,,0.00,,2013-08-01 19:41:00,
2013-08-01 15:46:00,89.1,88.7,29.97,ESE,112,14.3,16.1,55,0.00,,,0.00,,2013-08-01 19:46:00,
2013-08-01 15:52:00,89.4,88.8,29.96,ESE,112,13.4,17.9,55,0.00,,,0.00,,2013-08-01 19:52:00,
2013-08-01 15:57:00,89.3,88.8,29.96,East,90,10.3,12.8,54,0.00,,,0.00,,2013-08-01 19:57:00,
2013-08-01 16:03:00,89.3,88.9,29.96,ESE,112,8.3,17.9,55,0.00,,,0.00,,2013-08-01 20:03:00,
2013-08-01 16:08:00,89.4,88.8,29.96,East,90,6.7,16.1,53,0.00,,,0.00,,2013-08-01 20:08:00,
2013-08-01 16:14:00,89.5,89.0,29.95,East,90,7.2,12.8,52,0.00,,,0.00,,2013-08-01 20:14:00,
2013-08-01 16:19:00,89.5,89.2,29.95,ESE,112,10.1,15.4,49,0.00,,,0.00,,2013-08-01 20:19:00,
2013-08-01 16:24:00,89.6,89.1,29.95,East,90,10.7,15.2,50,0.00,,,0.00,,2013-08-01 20:24:00,
2013-08-01 16:29:00,89.4,89.0,29.95,ESE,112,14.3,14.3,48,0.00,,,0.00,,2013-08-01 20:29:00,
2013-08-01 16:34:00,89.2,88.9,29.95,ESE,112,14.5,18.8,51,0.00,,,0.00,,2013-08-01 20:34:00,
2013-08-01 16:39:00,89.2,89.1,29.95,East,90,16.8,16.8,51,0.00,,,0.00,,2013-08-01 20:39:00,
2013-08-01 16:40:00,89.0,89.2,29.95,ESE,112,8.3,17.7,51,0.00,,,0.00,,2013-08-01 20:40:00,
2013-08-01 16:46:00,88.9,89.2,29.94,ESE,112,10.7,16.1,53,0.00,,,0.00,,2013-08-01 20:46:00,
2013-08-01 16:51:00,89.0,89.0,29.94,East,90,12.1,15.0,52,0.00,,,0.00,,2013-08-01 20:51:00,
2013-08-01 16:56:00,88.9,88.8,29.94,SE,135,12.1,16.8,52,0.00,,,0.00,,2013-08-01 20:56:00,
2013-08-01 17:02:00,88.9,89.0,29.94,East,90,8.5,14.3,53,0.00,,,0.00,,2013-08-01 21:02:00,
2013-08-01 17:07:00,89.0,89.1,29.94,East,90,7.4,14.5,52,0.00,,,0.00,,2013-08-01 21:07:00,
2013-08-01 17:12:00,89.0,89.0,29.94,SE,135,5.6,12.8,53,0.00,,,0.00,,2013-08-01 21:12:00,
2013-08-01 17:17:00,89.1,89.0,29.94,SE,135,12.3,18.3,56,0.00,,,0.00,,2013-08-01 21:17:00,
2013-08-01 17:23:00,88.4,89.2,29.94,ESE,112,19.9,23.5,60,0.00,,,0.00,,2013-08-01 21:23:00,
2013-08-01 17:28:00,87.4,89.4,29.95,SSE,157,15.9,20.1,61,0.00,,,0.00,,2013-08-01 21:28:00,
2013-08-01 17:33:00,87.0,89.1,29.94,ESE,112,9.2,12.5,61,0.00,,,0.00,,2013-08-01 21:33:00,
2013-08-01 17:38:00,87.3,89.1,29.94,ESE,112,13.9,13.9,61,0.00,,,0.00,,2013-08-01 21:38:00,
2013-08-01 17:43:00,87.3,89.2,29.95,SE,135,14.8,18.1,58,0.00,,,0.00,,2013-08-01 21:43:00,
2013-08-01 17:48:00,87.3,89.2,29.95,East,90,8.1,16.8,58,0.00,,,0.00,,2013-08-01 21:48:00,
2013-08-01 17:53:00,87.4,89.2,29.95,ENE,67,9.4,14.3,57,0.00,,,0.00,,2013-08-01 21:53:00,
2013-08-01 17:58:00,87.8,89.1,29.95,ESE,112,7.8,13.0,58,0.00,,,0.00,,2013-08-01 21:58:00,
2013-08-01 18:03:00,87.9,89.0,29.95,SE,135,5.6,14.3,58,0.00,,,0.00,,2013-08-01 22:03:00,
2013-08-01 18:09:00,87.8,89.0,29.95,East,90,10.3,12.3,57,0.00,,,0.00,,2013-08-01 22:09:00,
2013-08-01 18:14:00,87.8,89.0,29.96,ESE,112,6.7,6.7,57,0.00,,,0.00,,2013-08-01 22:14:00,
2013-08-01 18:19:00,87.7,89.0,29.96,East,90,7.2,11.4,58,0.00,,,0.00,,2013-08-01 22:19:00,
2013-08-01 18:24:00,87.6,89.0,29.95,ESE,112,15.2,18.6,55,0.00,,,0.00,,2013-08-01 22:24:00,
2013-08-01 18:29:00,87.4,89.1,29.95,East,90,7.6,15.7,56,0.00,,,0.00,,2013-08-01 22:29:00,
2013-08-01 18:35:00,87.4,89.0,29.95,ENE,67,7.6,11.4,58,0.00,,,0.00,,2013-08-01 22:35:00,
2013-08-01 18:40:00,87.5,89.0,29.96,East,90,7.8,7.8,57,0.00,,,0.00,,2013-08-01 22:40:00,
2013-08-01 18:45:00,87.8,89.0,29.96,ESE,112,8.7,14.5,57,0.00,,,0.00,,2013-08-01 22:45:00,
2013-08-01 18:50:00,87.8,89.1,29.96,East,90,7.4,11.9,57,0.00,,,0.00,,2013-08-01 22:50:00,
2013-08-01 18:55:00,87.7,89.1,29.96,SE,135,3.8,13.6,57,0.00,,,0.00,,2013-08-01 22:55:00,
2013-08-01 19:00:00,87.7,89.0,29.96,East,90,11.9,13.0,56,0.00,,,0.00,,2013-08-01 23:00:00,
2013-08-01 19:06:00,87.8,89.0,29.96,ENE,67,6.3,12.8,58,0.00,,,0.00,,2013-08-01 23:06:00,
2013-08-01 19:11:00,88.1,89.0,29.96,ESE,112,7.4,12.8,58,0.00,,,0.00,,2013-08-01 23:11:00,
2013-08-01 19:16:00,88.2,89.0,29.99,East,90,6.7,14.3,58,0.00,,,0.00,,2013-08-01 23:16:00,
2013-08-01 19:21:00,88.3,88.9,29.99,ESE,112,6.3,6.3,58,0.00,,,0.00,,2013-08-01 23:21:00,
2013-08-01 19:26:00,88.0,88.8,29.99,East,90,6.3,10.5,57,0.00,,,0.00,,2013-08-01 23:26:00,
2013-08-01 19:31:00,87.6,88.8,29.99,ESE,112,6.5,9.4,58,0.00,,,0.00,,2013-08-01 23:31:00,
2013-08-01 19:36:00,87.1,88.7,29.99,ENE,67,4.5,9.6,59,0.00,,,0.00,,2013-08-01 23:36:00,
2013-08-01 19:41:00,86.8,88.8,29.99,ESE,112,6.3,9.6,60,0.00,,,0.00,,2013-08-01 23:41:00,
2013-08-01 19:46:00,86.6,88.7,29.99,East,90,6.0,6.9,61,0.00,,,0.00,,2013-08-01 23:46:00,
2013-08-01 19:51:00,86.3,88.7,29.99,East,90,7.2,8.7,61,0.00,,,0.00,,2013-08-01 23:51:00,
2013-08-01 19:56:00,86.2,88.6,29.99,ESE,112,4.3,9.4,61,0.00,,,0.00,,2013-08-01 23:56:00,
2013-08-01 20:01:00,86.1,88.6,29.99,East,90,2.0,2.9,61,0.00,,,0.00,,2013-08-02 00:01:00,
2013-08-01 20:06:00,86.0,88.6,29.99,East,90,8.9,8.9,62,0.00,,,0.00,,2013-08-02 00:06:00,
2013-08-01 20:11:00,85.9,88.6,29.99,SE,135,4.0,5.1,62,0.00,,,0.00,,2013-08-02 00:11:00,
2013-08-01 20:17:00,85.7,88.5,29.99,East,90,5.4,9.4,62,0.00,,,0.00,,2013-08-02 00:17:00,
2013-08-01 20:22:00,85.7,88.5,29.99,East,90,7.4,9.4,62,0.00,,,0.00,,2013-08-02 00:22:00,
2013-08-01 20:27:00,85.6,88.4,29.99,East,90,6.0,8.1,63,0.00,,,0.00,,2013-08-02 00:27:00,
2013-08-01 20:32:00,85.5,88.4,29.99,East,90,3.6,4.7,63,0.00,,,0.00,,2013-08-02 00:32:00,
2013-08-01 20:37:00,85.5,88.4,29.99,ENE,67,0.0,4.7,63,0.00,,,0.00,,2013-08-02 00:37:00,
2013-08-01 20:42:00,85.4,88.4,29.99,ENE,67,2.0,3.6,63,0.00,,,0.00,,2013-08-02 00:42:00,
2013-08-01 20:47:00,85.4,88.3,29.99,ENE,67,0.7,4.5,63,0.00,,,0.00,,2013-08-02 00:47:00,
2013-08-01 20:52:00,85.4,88.3,29.99,East,90,4.5,6.5,62,0.00,,,0.00,,2013-08-02 00:52:00,
2013-08-01 20:57:00,85.4,88.3,29.99,East,90,2.7,6.3,62,0.00,,,0.00,,2013-08-02 00:57:00,
2013-08-01 21:02:00,85.3,88.3,29.99,East,90,9.4,9.4,63,0.00,,,0.00,,2013-08-02 01:02:00,
2013-08-01 21:07:00,85.3,88.3,29.99,ESE,112,6.7,11.9,63,0.00,,,0.00,,2013-08-02 01:07:00,
2013-08-01 21:12:00,85.1,88.3,30.00,East,90,10.1,12.8,63,0.00,,,0.00,,2013-08-02 01:12:00,
2013-08-01 21:18:00,84.7,88.3,30.00,SE,135,6.3,8.3,62,0.00,,,0.00,,2013-08-02 01:18:00,
2013-08-01 21:23:00,84.5,88.3,30.00,East,90,4.0,10.3,62,0.00,,,0.00,,2013-08-02 01:23:00,
2013-08-01 21:28:00,84.3,88.3,30.00,East,90,7.2,8.7,63,0.00,,,0.00,,2013-08-02 01:28:00,
2013-08-01 21:33:00,84.1,88.2,30.00,ESE,112,5.8,15.4,65,0.00,,,0.00,,2013-08-02 01:33:00,
2013-08-01 21:38:00,84.0,88.2,30.00,East,90,10.3,11.0,65,0.00,,,0.00,,2013-08-02 01:38:00,
2013-08-01 21:43:00,83.9,88.2,30.01,ESE,112,7.4,8.3,65,0.00,,,0.00,,2013-08-02 01:43:00,
2013-08-01 21:48:00,83.8,88.2,30.00,East,90,4.3,5.4,64,0.00,,,0.00,,2013-08-02 01:48:00,
2013-08-01 21:54:00,83.8,88.2,30.01,ESE,112,2.9,8.3,64,0.00,,,0.00,,2013-08-02 01:54:00,
2013-08-01 21:58:00,83.8,88.2,30.01,ESE,112,4.5,6.9,64,0.00,,,0.00,,2013-08-02 01:58:00,
2013-08-01 22:03:00,83.8,88.2,30.01,ESE,112,1.6,8.1,64,0.00,,,0.00,,2013-08-02 02:03:00,
2013-08-01 22:09:00,83.8,88.2,30.01,ESE,112,3.1,4.5,64,0.00,,,0.00,,2013-08-02 02:09:00,
2013-08-01 22:14:00,83.8,88.1,30.01,ESE,112,1.3,3.6,63,0.00,,,0.00,,2013-08-02 02:14:00,
2013-08-01 22:19:00,83.8,88.1,30.01,East,90,2.0,3.1,63,0.00,,,0.00,,2013-08-02 02:19:00,
2013-08-01 22:24:00,83.8,88.1,30.01,ESE,112,0.0,2.9,63,0.00,,,0.00,,2013-08-02 02:24:00,
2013-08-01 22:29:00,83.7,88.1,30.01,SE,135,0.0,0.7,63,0.00,,,0.00,,2013-08-02 02:29:00,
2013-08-01 22:34:00,83.6,88.0,30.01,SSE,157,4.7,4.7,65,0.00,,,0.00,,2013-08-02 02:34:00,
2013-08-01 22:39:00,83.6,88.0,30.01,SSE,157,0.0,3.4,67,0.00,,,0.00,,2013-08-02 02:39:00,
2013-08-01 22:44:00,83.7,88.0,30.01,SE,135,2.7,3.8,67,0.00,,,0.00,,2013-08-02 02:44:00,
2013-08-01 22:49:00,83.7,88.0,30.01,ESE,112,2.7,3.8,67,0.00,,,0.00,,2013-08-02 02:49:00,
2013-08-01 22:54:00,83.6,88.0,30.00,SSE,157,2.9,3.4,68,0.00,,,0.00,,2013-08-02 02:54:00,
2013-08-01 22:59:00,83.6,88.0,30.00,SE,135,6.3,6.7,68,0.00,,,0.00,,2013-08-02 02:59:00,
2013-08-01 23:04:00,83.5,88.0,30.00,SSE,157,1.3,4.7,69,0.00,,,0.00,,2013-08-02 03:04:00,
2013-08-01 23:09:00,83.5,88.0,30.00,SE,135,4.5,5.4,69,0.00,,,0.00,,2013-08-02 03:09:00,
2013-08-01 23:14:00,83.5,88.0,30.00,SE,135,3.4,7.8,69,0.00,,,0.00,,2013-08-02 03:14:00,
2013-08-01 23:19:00,83.5,87.9,30.00,ESE,112,2.9,5.4,69,0.00,,,0.00,,2013-08-02 03:19:00,
2013-08-01 23:24:00,83.4,87.9,30.00,ESE,112,3.1,6.3,69,0.00,,,0.00,,2013-08-02 03:24:00,
2013-08-01 23:29:00,83.4,87.9,30.00,ESE,112,4.3,8.9,70,0.00,,,0.00,,2013-08-02 03:29:00,
2013-08-01 23:34:00,83.3,87.9,30.00,SE,135,6.3,6.3,70,0.00,,,0.00,,2013-08-02 03:34:00,
2013-08-01 23:39:00,83.4,87.9,30.00,SE,135,6.7,8.3,70,0.00,,,0.00,,2013-08-02 03:39:00,
2013-08-01 23:45:00,83.2,87.9,30.00,SE,135,1.8,2.2,70,0.00,,,0.00,,2013-08-02 03:45:00,
2013-08-01 23:50:00,83.2,87.8,30.00,SE,135,3.1,3.4,70,0.00,,,0.00,,2013-08-02 03:50:00,
2013-08-01 23:55:00,83.3,87.8,30.00,ESE,112,1.1,1.1,69,0.00,,,0.00,,2013-08-02 03:55:00,